Time,TemperatureF,DewpointF,PressureIn,WindDirection,WindDirectionDegrees,WindSpeedMPH,WindSpeedGustMPH,Humidity,HourlyPrecipIn,Conditions,Clouds,dailyrainin,SolarRadiationWatts/m^2,SoftwareType,DateUTC
2013-05-21 00:00:00,77.4,73.0,29.79,SE,143,3.0,7.0,86,0.00,,,0.00,0,weatherlink.com 1.10,2013-05-21 05:00:00,
2013-05-21 00:15:00,77.1,73.0,29.79,SE,130,3.0,5.0,86,0.00,,,0.00,0,weatherlink.com 1.10,2013-05-21 05:15:00,
2013-05-21 00:30:00,76.7,73.0,29.78,SSE,163,2.0,6.0,87,0.00,,,0.00,0,weatherlink.com 1.10,2013-05-21 05:30:00,
2013-05-21 00:45:00,76.3,73.0,29.77,SSE,147,2.0,6.0,88,0.00,,,0.00,0,weatherlink.com 1.10,2013-05-21 05:45:00,
2013-05-21 01:00:00,76.0,72.0,29.77,SSE,159,3.0,5.0,88,0.00,,,0.00,0,weatherlink.com 1.10,2013-05-21 06:00:00,
2013-05-21 01:15:00,75.7,72.0,29.78,SSE,159,1.0,3.0,89,0.00,,,0.00,0,weatherlink.com 1.10,2013-05-21 06:15:00,
2013-05-21 01:30:00,75.7,73.0,29.76,SSE,158,3.0,4.0,90,0.00,,,0.00,0,weatherlink.com 1.10,2013-05-21 06:30:00,
2013-05-21 01:45:00,75.6,73.0,29.75,SSE,163,3.0,5.0,90,0.00,,,0.00,0,weatherlink.com 1.10,2013-05-21 06:45:00,
2013-05-21 02:01:00,75.7,73.0,29.74,SE,136,8.0,8.0,91,0.00,,,0.00,0,weatherlink.com 1.10,2013-05-21 07:01:00,
2013-05-21 02:16:00,75.6,73.0,29.72,SE,140,1.0,8.0,91,0.00,,,0.00,0,weatherlink.com 1.10,2013-05-21 07:16:00,
2013-05-21 02:31:00,75.5,73.0,29.73,SSE,156,0.0,7.0,91,0.00,,,0.00,0,weatherlink.com 1.10,2013-05-21 07:31:00,
2013-05-21 02:46:00,75.3,73.0,29.73,SSE,163,1.0,5.0,91,0.00,,,0.00,0,weatherlink.com 1.10,2013-05-21 07:46:00,
2013-05-21 03:16:00,74.9,73.0,29.72,South,175,1.0,7.0,92,0.00,,,0.00,0,weatherlink.com 1.10,2013-05-21 08:16:00,
2013-05-21 03:31:00,74.8,73.0,29.73,SE,140,3.0,4.0,93,0.00,,,0.00,0,weatherlink.com 1.10,2013-05-21 08:31:00,
2013-05-21 03:46:00,74.6,73.0,29.72,SE,140,1.0,3.0,93,0.00,,,0.00,0,weatherlink.com 1.10,2013-05-21 08:46:00,
2013-05-21 04:01:00,74.5,73.0,29.73,SE,132,2.0,6.0,94,0.00,,,0.00,0,weatherlink.com 1.10,2013-05-21 09:01:00,
2013-05-21 04:16:00,74.5,73.0,29.73,SSE,150,5.0,7.0,94,0.00,,,0.00,0,weatherlink.com 1.10,2013-05-21 09:16:00,
2013-05-21 04:31:00,74.5,73.0,29.73,SE,130,3.0,7.0,94,0.00,,,0.00,0,weatherlink.com 1.10,2013-05-21 09:31:00,
2013-05-21 04:46:00,74.6,73.0,29.74,SSE,150,3.0,5.0,94,0.00,,,0.00,0,weatherlink.com 1.10,2013-05-21 09:46:00,
2013-05-21 05:01:00,74.6,73.0,29.73,SE,144,4.0,9.0,94,0.00,,,0.00,0,weatherlink.com 1.10,2013-05-21 10:01:00,
2013-05-21 05:16:00,74.8,73.0,29.73,SE,136,7.0,9.0,94,0.00,,,0.00,0,weatherlink.com 1.10,2013-05-21 10:16:00,
2013-05-21 05:31:00,74.7,73.0,29.73,SSE,148,3.0,11.0,94,0.00,,,0.00,0,weatherlink.com 1.10,2013-05-21 10:31:00,
2013-05-21 05:46:00,74.8,73.0,29.73,SSE,156,2.0,11.0,94,0.00,,,0.00,0,weatherlink.com 1.10,2013-05-21 10:46:00,
2013-05-21 06:01:00,74.8,73.0,29.73,SSE,160,3.0,11.0,94,0.00,,,0.00,0,weatherlink.com 1.10,2013-05-21 11:01:00,
2013-05-21 06:16:00,75.0,73.0,29.73,SSE,148,6.0,7.0,94,0.00,,,0.00,0,weatherlink.com 1.10,2013-05-21 11:16:00,
2013-05-21 06:31:00,74.9,73.0,29.73,ESE,119,5.0,9.0,94,0.00,,,0.00,0,weatherlink.com 1.10,2013-05-21 11:31:00,
2013-05-21 06:46:00,74.9,73.0,29.73,SSE,150,4.0,7.0,95,0.00,,,0.00,9,weatherlink.com 1.10,2013-05-21 11:46:00,
2013-05-21 07:01:00,75.1,74.0,29.73,SSE,153,3.0,10.0,95,0.00,,,0.00,23,weatherlink.com 1.10,2013-05-21 12:01:00,
2013-05-21 07:16:00,75.4,74.0,29.74,SE,134,4.0,14.0,95,0.00,,,0.00,37,weatherlink.com 1.10,2013-05-21 12:16:00,
2013-05-21 07:31:00,75.8,74.0,29.74,SE,126,10.0,11.0,94,0.00,,,0.00,44,weatherlink.com 1.10,2013-05-21 12:31:00,
2013-05-21 07:46:00,76.2,74.0,29.74,South,180,8.0,14.0,93,0.00,,,0.00,46,weatherlink.com 1.10,2013-05-21 12:46:00,
2013-05-21 08:01:00,76.5,74.0,29.75,South,188,5.0,14.0,93,0.00,,,0.00,40,weatherlink.com 1.10,2013-05-21 13:01:00,
2013-05-21 08:16:00,76.7,74.0,29.75,SSE,156,7.0,12.0,92,0.00,,,0.00,62,weatherlink.com 1.10,2013-05-21 13:16:00,
2013-05-21 08:31:00,76.9,74.0,29.75,South,177,6.0,13.0,91,0.00,,,0.00,88,weatherlink.com 1.10,2013-05-21 13:31:00,
2013-05-21 08:46:00,77.1,74.0,29.76,SSE,164,6.0,12.0,90,0.00,,,0.00,107,weatherlink.com 1.10,2013-05-21 13:46:00,
2013-05-21 09:01:00,77.6,74.0,29.76,SE,135,11.0,18.0,87,0.00,,,0.00,262,weatherlink.com 1.10,2013-05-21 14:01:00,
2013-05-21 09:16:00,77.8,73.0,29.77,SSE,149,8.0,11.0,86,0.00,,,0.00,132,weatherlink.com 1.10,2013-05-21 14:16:00,
2013-05-21 09:31:00,77.7,74.0,29.77,South,173,3.0,11.0,87,0.00,,,0.00,111,weatherlink.com 1.10,2013-05-21 14:31:00,
2013-05-21 09:46:00,77.8,73.0,29.77,SSE,151,9.0,13.0,86,0.00,,,0.00,190,weatherlink.com 1.10,2013-05-21 14:46:00,
2013-05-21 10:01:00,78.1,73.0,29.77,SSE,165,3.0,15.0,85,0.00,,,0.00,160,weatherlink.com 1.10,2013-05-21 15:01:00,
2013-05-21 10:16:00,78.3,73.0,29.77,South,183,4.0,22.0,84,0.00,,,0.00,214,weatherlink.com 1.10,2013-05-21 15:16:00,
2013-05-21 10:31:00,78.7,73.0,29.76,South,176,15.0,17.0,82,0.00,,,0.00,294,weatherlink.com 1.10,2013-05-21 15:31:00,
2013-05-21 10:46:00,79.5,73.0,29.75,SSE,165,7.0,17.0,81,0.00,,,0.00,371,weatherlink.com 1.10,2013-05-21 15:46:00,
2013-05-21 11:01:00,80.0,74.0,29.75,South,184,8.0,19.0,81,0.00,,,0.00,373,weatherlink.com 1.10,2013-05-21 16:01:00,
2013-05-21 11:16:00,81.4,74.0,29.74,SSW,204,7.0,22.0,78,0.00,,,0.00,939,weatherlink.com 1.10,2013-05-21 16:16:00,
2013-05-21 11:32:00,82.1,74.0,29.75,SSW,202,7.0,17.0,75,0.00,,,0.00,566,weatherlink.com 1.10,2013-05-21 16:32:00,
2013-05-21 11:47:00,82.5,74.0,29.75,SSW,200,12.0,20.0,75,0.00,,,0.00,357,weatherlink.com 1.10,2013-05-21 16:47:00,
2013-05-21 12:02:00,82.6,74.0,29.75,SSW,202,8.0,17.0,75,0.00,,,0.00,383,weatherlink.com 1.10,2013-05-21 17:02:00,
2013-05-21 12:17:00,83.1,74.0,29.75,SSW,206,9.0,19.0,74,0.00,,,0.00,441,weatherlink.com 1.10,2013-05-21 17:17:00,
2013-05-21 12:32:00,84.5,74.0,29.74,South,179,9.0,14.0,71,0.00,,,0.00,1016,weatherlink.com 1.10,2013-05-21 17:32:00,
2013-05-21 12:47:00,84.5,74.0,29.73,SSW,198,10.0,17.0,71,0.00,,,0.00,1021,weatherlink.com 1.10,2013-05-21 17:47:00,
2013-05-21 13:02:00,84.5,74.0,29.73,South,178,12.0,18.0,71,0.00,,,0.00,533,weatherlink.com 1.10,2013-05-21 18:02:00,
2013-05-21 13:17:00,85.5,73.0,29.72,SSW,201,14.0,21.0,66,0.00,,,0.00,1085,weatherlink.com 1.10,2013-05-21 18:17:00,
2013-05-21 13:32:00,85.5,74.0,29.72,SSW,207,12.0,16.0,68,0.00,,,0.00,1062,weatherlink.com 1.10,2013-05-21 18:32:00,
2013-05-21 13:47:00,86.1,73.0,29.71,SSE,163,7.0,17.0,66,0.00,,,0.00,425,weatherlink.com 1.10,2013-05-21 18:47:00,
2013-05-21 14:02:00,86.5,74.0,29.72,South,188,7.0,14.0,66,0.00,,,0.00,388,weatherlink.com 1.10,2013-05-21 19:02:00,
2013-05-21 14:17:00,86.7,73.0,29.71,South,176,8.0,15.0,64,0.00,,,0.00,378,weatherlink.com 1.10,2013-05-21 19:17:00,
2013-05-21 14:32:00,87.1,74.0,29.71,South,173,7.0,19.0,65,0.00,,,0.00,404,weatherlink.com 1.10,2013-05-21 19:32:00,
2013-05-21 14:47:00,87.3,73.0,29.71,SSW,200,4.0,13.0,62,0.00,,,0.00,450,weatherlink.com 1.10,2013-05-21 19:47:00,
2013-05-21 15:02:00,87.0,74.0,29.70,South,186,9.0,16.0,65,0.00,,,0.00,362,weatherlink.com 1.10,2013-05-21 20:02:00,
2013-05-21 15:17:00,87.9,73.0,29.70,South,171,8.0,15.0,62,0.00,,,0.00,397,weatherlink.com 1.10,2013-05-21 20:17:00,
2013-05-21 15:32:00,88.0,73.0,29.70,SSE,165,5.0,18.0,62,0.00,,,0.00,889,weatherlink.com 1.10,2013-05-21 20:32:00,
2013-05-21 15:47:00,88.4,74.0,29.68,South,169,9.0,18.0,62,0.00,,,0.00,925,weatherlink.com 1.10,2013-05-21 20:47:00,
2013-05-21 16:02:00,87.4,74.0,29.68,SW,223,11.0,16.0,64,0.00,,,0.00,323,weatherlink.com 1.10,2013-05-21 21:02:00,
2013-05-21 16:17:00,87.4,73.0,29.68,SE,132,6.0,17.0,63,0.00,,,0.00,411,weatherlink.com 1.10,2013-05-21 21:17:00,
2013-05-21 16:32:00,88.1,74.0,29.66,SSE,150,11.0,14.0,63,0.00,,,0.00,752,weatherlink.com 1.10,2013-05-21 21:32:00,
2013-05-21 16:47:00,87.7,74.0,29.65,South,184,10.0,15.0,63,0.00,,,0.00,519,weatherlink.com 1.10,2013-05-21 21:47:00,
2013-05-21 17:02:00,87.2,74.0,29.64,SSW,201,8.0,19.0,64,0.00,,,0.00,510,weatherlink.com 1.10,2013-05-21 22:02:00,
2013-05-21 17:17:00,86.9,74.0,29.64,South,171,6.0,17.0,65,0.00,,,0.00,473,weatherlink.com 1.10,2013-05-21 22:17:00,
2013-05-21 17:32:00,86.3,74.0,29.63,South,169,6.0,16.0,67,0.00,,,0.00,193,weatherlink.com 1.10,2013-05-21 22:32:00,
2013-05-21 17:47:00,85.4,73.0,29.64,South,180,4.0,18.0,67,0.00,,,0.00,185,weatherlink.com 1.10,2013-05-21 22:47:00,
2013-05-21 18:02:00,85.2,73.0,29.63,South,179,5.0,17.0,67,0.00,,,0.00,399,weatherlink.com 1.10,2013-05-21 23:02:00,
2013-05-21 18:17:00,85.2,73.0,29.62,South,186,11.0,16.0,66,0.00,,,0.00,274,weatherlink.com 1.10,2013-05-21 23:17:00,
2013-05-21 18:32:00,84.8,73.0,29.62,South,180,9.0,17.0,67,0.00,,,0.00,213,weatherlink.com 1.10,2013-05-21 23:32:00,
2013-05-21 18:47:00,84.0,73.0,29.64,SSW,194,9.0,14.0,69,0.00,,,0.00,113,weatherlink.com 1.10,2013-05-21 23:47:00,
2013-05-21 19:02:00,83.5,73.0,29.66,SSW,193,6.0,13.0,70,0.00,,,0.00,32,weatherlink.com 1.10,2013-05-22 00:02:00,
2013-05-21 19:18:00,83.0,72.0,29.66,South,180,10.0,10.0,70,0.00,,,0.00,19,weatherlink.com 1.10,2013-05-22 00:18:00,
2013-05-21 19:32:00,82.6,73.0,29.66,South,172,7.0,12.0,72,0.00,,,0.00,33,weatherlink.com 1.10,2013-05-22 00:32:00,
2013-05-21 19:47:00,82.3,73.0,29.66,SSE,165,7.0,9.0,73,0.00,,,0.00,28,weatherlink.com 1.10,2013-05-22 00:47:00,
2013-05-21 20:02:00,81.7,73.0,29.67,South,178,5.0,11.0,74,0.00,,,0.00,9,weatherlink.com 1.10,2013-05-22 01:02:00,
2013-05-21 20:18:00,81.1,73.0,29.67,SSE,161,4.0,7.0,75,0.00,,,0.00,0,weatherlink.com 1.10,2013-05-22 01:18:00,
2013-05-21 20:33:00,80.5,73.0,29.68,SSE,155,4.0,9.0,77,0.00,,,0.00,0,weatherlink.com 1.10,2013-05-22 01:33:00,
2013-05-21 20:48:00,79.9,73.0,29.68,SSE,159,1.0,8.0,78,0.00,,,0.00,0,weatherlink.com 1.10,2013-05-22 01:48:00,
2013-05-21 21:03:00,79.3,72.0,29.68,SSE,160,6.0,9.0,79,0.00,,,0.00,0,weatherlink.com 1.10,2013-05-22 02:03:00,
2013-05-21 21:20:00,78.7,72.0,29.68,SSE,155,1.0,9.0,81,0.00,,,0.00,0,weatherlink.com 1.10,2013-05-22 02:20:00,
2013-05-21 21:33:00,78.6,72.0,29.70,SSE,157,1.0,6.0,81,0.00,,,0.00,0,weatherlink.com 1.10,2013-05-22 02:33:00,
2013-05-21 21:48:00,78.4,73.0,29.72,NW,317,4.0,5.0,82,0.00,,,0.00,0,weatherlink.com 1.10,2013-05-22 02:48:00,
2013-05-21 22:03:00,78.3,72.0,29.73,NW,313,0.0,1.0,82,0.00,,,0.00,0,weatherlink.com 1.10,2013-05-22 03:03:00,
2013-05-21 22:18:00,77.3,70.0,29.75,North,9,3.0,11.0,79,0.00,,,0.00,0,weatherlink.com 1.10,2013-05-22 03:18:00,
2013-05-21 22:33:00,75.5,69.0,29.76,NNW,339,2.0,9.0,81,0.00,,,0.00,0,weatherlink.com 1.10,2013-05-22 03:33:00,
2013-05-21 22:48:00,73.5,68.0,29.77,NNW,338,5.0,7.0,82,0.00,,,0.00,0,weatherlink.com 1.10,2013-05-22 03:48:00,
2013-05-21 23:03:00,71.3,67.0,29.78,North,5,0.0,9.0,87,0.01,,,0.01,0,weatherlink.com 1.10,2013-05-22 04:03:00,
2013-05-21 23:18:00,70.0,67.0,29.78,North,5,1.0,6.0,91,0.02,,,0.02,0,weatherlink.com 1.10,2013-05-22 04:18:00,
2013-05-21 23:33:00,69.6,67.0,29.78,NNE,17,1.0,5.0,92,0.02,,,0.02,0,weatherlink.com 1.10,2013-05-22 04:33:00,
2013-05-21 23:48:00,69.5,68.0,29.79,NNE,22,1.0,3.0,94,0.02,,,0.02,0,weatherlink.com 1.10,2013-05-22 04:48:00,